Le nostre stazioni meteo in Italia

Pubblicità
Il mio iltempo24.it
Termoli, Italia (16232): Temperatura & dewpoint: 19.05.2019 08:00:00 - 25.05.2019 08:00:00 (CEST)Termoli, Italia (16232): velocità del vento: 19.05.2019 08:00:00 - 25.05.2019 08:00:00 (CEST)Termoli, Italia (16232): direzione del vento: 19.05.2019 08:00:00 - 25.05.2019 08:00:00 (CEST)Termoli, Italia (16232): reduced air pressure: 19.05.2019 08:00:00 - 25.05.2019 08:00:00 (CEST)Termoli, Italia (16232): visibility: 19.05.2019 08:00:00 - 25.05.2019 08:00:00 (CEST)Termoli, Italia (16232): ore di luce: 19.05.2019 08:00:00 - 25.05.2019 08:00:00 (CEST)
Data & Tempo tt [°C] td [°C] ff [km/h] ff [kn] dd ppp [hPa] vv [km] sd [min]
25.05.2019 08:00:00 - - - - - - - -
25.05.2019 07:00:00 - - - - - - - -
25.05.2019 06:00:00 - - - - - - - -
25.05.2019 05:00:00 - - - - - - - -
25.05.2019 04:00:00 - - - - - - - -
25.05.2019 03:00:00 - - - - - - - -
25.05.2019 02:00:00 - - - - - - - -
25.05.2019 01:00:00 - - - - - - - -
25.05.2019 00:00:00 - - - - - - - -
24.05.2019 23:00:00 - - - - - - - -
24.05.2019 22:00:00 - - - - - - - -
24.05.2019 21:00:00 - - - - - - - -
24.05.2019 20:00:00 20,2 18,2 4 2 NNE 1012,1 25 0
24.05.2019 19:00:00 - - - - - - - -
24.05.2019 18:00:00 - - - - - - - -
24.05.2019 17:00:00 23,0 18,5 8 4 E 1012,6 25 60
24.05.2019 16:00:00 - - - - - - - -
24.05.2019 15:00:00 - - - - - - - -
24.05.2019 14:00:00 23,0 16,6 4 2 NNE 1013,2 25 60
24.05.2019 13:00:00 - - - - - - - -
24.05.2019 12:00:00 - - - - - - - -
24.05.2019 11:00:00 19,2 14,2 8 4 N 1013,9 25 60
24.05.2019 10:00:00 - - - - - - - -
24.05.2019 09:00:00 - - - - - - - -
24.05.2019 08:00:00 17,6 12,7 5 3 OSO 1014,1 25 48
24.05.2019 07:00:00 - - - - - - - -
24.05.2019 06:00:00 - - - - - - - -
24.05.2019 05:00:00 - - - - - - - -
24.05.2019 04:00:00 - - - - - - - -
24.05.2019 03:00:00 - - - - - - - -
24.05.2019 02:00:00 - - - - - - - -
24.05.2019 01:00:00 - - - - - - - -
24.05.2019 00:00:00 - - - - - - - -
23.05.2019 23:00:00 - - - - - - - -
23.05.2019 22:00:00 - - - - - - - -
23.05.2019 21:00:00 - - - - - - - -
23.05.2019 20:00:00 21,0 18,4 5 3 NNO 1014,2 20 48
23.05.2019 19:00:00 - - - - - - - -
23.05.2019 18:00:00 - - - - - - - -
23.05.2019 17:00:00 22,4 16,7 2 1 ENE 1014,3 20 60
23.05.2019 16:00:00 - - - - - - - -
23.05.2019 15:00:00 - - - - - - - -
23.05.2019 14:00:00 18,4 16,4 13 7 N 1015,2 20 60
23.05.2019 13:00:00 - - - - - - - -
23.05.2019 12:00:00 - - - - - - - -
23.05.2019 11:00:00 17,6 15,6 9 5 N 1016,4 20 60
23.05.2019 10:00:00 - - - - - - - -
23.05.2019 09:00:00 - - - - - - - -
23.05.2019 08:00:00 17,2 14,1 2 1 ONO 1015,4 25 48
23.05.2019 07:00:00 - - - - - - - -
23.05.2019 06:00:00 - - - - - - - -
23.05.2019 05:00:00 - - - - - - - -
23.05.2019 04:00:00 - - - - - - - -
23.05.2019 03:00:00 - - - - - - - -
23.05.2019 02:00:00 - - - - - - - -
23.05.2019 01:00:00 - - - - - - - -
23.05.2019 00:00:00 - - - - - - - -
22.05.2019 23:00:00 - - - - - - - -
22.05.2019 22:00:00 - - - - - - - -
22.05.2019 21:00:00 - - - - - - - -
22.05.2019 20:00:00 19,6 17,2 8 4 ESE 1014,3 20 0
22.05.2019 19:00:00 - - - - - - - -
22.05.2019 18:00:00 - - - - - - - -
22.05.2019 17:00:00 20,6 16,4 4 2 NNE 1014,5 20 48
22.05.2019 16:00:00 - - - - - - - -
22.05.2019 15:00:00 - - - - - - - -
22.05.2019 14:00:00 22,6 19,8 5 3 N 1015,0 20 48
22.05.2019 13:00:00 - - - - - - - -
22.05.2019 12:00:00 - - - - - - - -
22.05.2019 11:00:00 23,0 14,3 5 3 SSE 1015,1 20 60
22.05.2019 10:00:00 - - - - - - - -
22.05.2019 09:00:00 - - - - - - - -
22.05.2019 08:00:00 19,0 13,8 0 0 N 1014,5 20 30
22.05.2019 07:00:00 - - - - - - - -
22.05.2019 06:00:00 - - - - - - - -
22.05.2019 05:00:00 - - - - - - - -
22.05.2019 04:00:00 - - - - - - - -
22.05.2019 03:00:00 - - - - - - - -
22.05.2019 02:00:00 - - - - - - - -
22.05.2019 01:00:00 - - - - - - - -
22.05.2019 00:00:00 - - - - - - - -
21.05.2019 23:00:00 - - - - - - - -
21.05.2019 22:00:00 - - - - - - - -
21.05.2019 21:00:00 - - - - - - - -
21.05.2019 20:00:00 23,8 12,1 21 11 SO 1012,0 20 36
21.05.2019 19:00:00 - - - - - - - -
21.05.2019 18:00:00 - - - - - - - -
21.05.2019 17:00:00 24,0 18,7 9 5 ENE 1011,9 20 60
21.05.2019 16:00:00 - - - - - - - -
21.05.2019 15:00:00 - - - - - - - -
21.05.2019 14:00:00 23,0 18,5 8 4 ENE 1011,5 20 0
21.05.2019 13:00:00 - - - - - - - -
21.05.2019 12:00:00 - - - - - - - -
21.05.2019 11:00:00 22,4 15,3 8 4 NNE 1010,7 20 60
21.05.2019 10:00:00 - - - - - - - -
21.05.2019 09:00:00 - - - - - - - -
21.05.2019 08:00:00 19,4 13,8 15 8 SSO 1009,6 20 18
21.05.2019 07:00:00 - - - - - - - -
21.05.2019 06:00:00 - - - - - - - -
21.05.2019 05:00:00 - - - - - - - -
21.05.2019 04:00:00 - - - - - - - -
21.05.2019 03:00:00 - - - - - - - -
21.05.2019 02:00:00 - - - - - - - -
21.05.2019 01:00:00 - - - - - - - -
21.05.2019 00:00:00 - - - - - - - -
20.05.2019 23:00:00 - - - - - - - -
20.05.2019 22:00:00 - - - - - - - -
20.05.2019 21:00:00 - - - - - - - -
20.05.2019 20:00:00 20,4 7,7 18 10 SSO 1008,4 20 18
20.05.2019 19:00:00 - - - - - - - -
20.05.2019 18:00:00 - - - - - - - -
20.05.2019 17:00:00 21,4 6,5 16 9 SO 1009,0 20 48
20.05.2019 16:00:00 - - - - - - - -
20.05.2019 15:00:00 - - - - - - - -
20.05.2019 14:00:00 23,8 6,6 29 16 SSO 1007,8 20 42
20.05.2019 13:00:00 - - - - - - - -
20.05.2019 12:00:00 - - - - - - - -
20.05.2019 11:00:00 22,4 9,6 9 5 ONO 1007,6 20 60
20.05.2019 10:00:00 - - - - - - - -
20.05.2019 09:00:00 - - - - - - - -
20.05.2019 08:00:00 18,8 10,4 15 8 SO 1007,0 20 30
20.05.2019 07:00:00 - - - - - - - -
20.05.2019 06:00:00 - - - - - - - -
20.05.2019 05:00:00 - - - - - - - -
20.05.2019 04:00:00 - - - - - - - -
20.05.2019 03:00:00 - - - - - - - -
20.05.2019 02:00:00 - - - - - - - -
20.05.2019 01:00:00 - - - - - - - -
20.05.2019 00:00:00 - - - - - - - -
19.05.2019 23:00:00 - - - - - - - -
19.05.2019 22:00:00 - - - - - - - -
19.05.2019 21:00:00 - - - - - - - -
19.05.2019 20:00:00 20,0 18,3 5 3 N 1004,0 20 0
19.05.2019 19:00:00 - - - - - - - -
19.05.2019 18:00:00 - - - - - - - -
19.05.2019 17:00:00 20,2 18,0 8 4 N 1003,1 10 48
19.05.2019 16:00:00 - - - - - - - -
19.05.2019 15:00:00 - - - - - - - -
19.05.2019 14:00:00 19,0 17,1 15 8 N 1002,2 10 30
19.05.2019 13:00:00 - - - - - - - -
19.05.2019 12:00:00 - - - - - - - -
19.05.2019 11:00:00 19,8 17,6 5 3 NE 1003,1 10 60
19.05.2019 10:00:00 - - - - - - - -
19.05.2019 09:00:00 - - - - - - - -
19.05.2019 08:00:00 17,2 14,3 13 7 ONO 1003,1 20 18

tt = Temperatura
td = dewpoint
ff = velocità del vento
dd = direzione del vento
ppp = reduced air pressure
vv = visibility
sd = ore di luce

Stazioni seguenti

WeatherPro
AMSI
MeteoEarth